00:00:00,82FABDE0,0,0,19605,0,0,145
00:00:08,82FABEE0,0,0,19605,0,0,145
00:00:16,82FABFE0,0,0,19605,0,0,145
00:00:24,82FAC0E0,0,0,19605,0,0,145
00:00:32,82FAC1E0,0,0,19605,0,0,145
00:00:40,82FAC2E0,0,0,19605,0,0,146
00:00:56,82FAC4E0,0,0,19605,0,0,145
00:01:04,82FAC5E0,0,0,19605,0,0,145
00:01:12,82FAC6E0,0,0,19605,0,0,145
00:01:20,82FAC7E0,0,0,19605,0,0,144
00:01:28,82FAC8E0,0,0,19605,0,0,144
00:01:36,82FAC9E0,0,0,19605,0,0,144
00:01:44,82FACAE0,0,0,19605,0,0,143
00:02:00,82FACCE0,0,0,19605,0,0,142
00:02:08,82FACDE0,0,0,19605,0,0,142
00:02:16,82FACEE0,0,0,19605,0,0,142
00:02:32,82FAD0E0,0,0,19605,0,0,141
00:02:40,82FAD1E0,0,0,19605,0,0,141
00:02:48,82FAD2E0,0,0,19605,0,0,141
00:03:04,82FAD4E0,0,0,19605,0,0,141
00:03:12,82FAD5E0,0,0,19605,0,0,141
00:03:20,82FAD6E0,0,0,19605,0,0,141
00:03:28,82FAD7E0,0,0,19605,0,0,141
00:03:36,82FAD8E0,0,0,19605,0,0,142
00:03:44,82FAD9E0,0,0,19605,0,0,142
00:03:52,82FADAE0,0,0,19605,0,0,142
00:04:08,82FADCE0,0,0,19605,0,0,142
00:04:16,82FADDE0,0,0,19605,0,0,143
00:04:24,82FADEE0,0,0,19605,0,0,143
00:04:32,82FADFE0,0,0,19605,0,0,143
00:04:40,82FAE0E0,0,0,19605,0,0,143
00:04:48,82FAE1E0,0,0,19605,0,0,144
00:04:56,82FAE2E0,0,0,19605,0,0,144
00:05:12,82FAE4E0,0,0,19605,0,0,144
00:05:20,82FAE5E0,0,0,19605,0,0,144
00:05:28,82FAE6E0,0,0,19605,0,0,144
00:05:36,82FAE7E0,0,0,19605,0,0,144
00:05:44,82FAE8E0,0,0,19605,0,0,145
00:05:52,82FAE9E0,0,0,19605,0,0,145
00:06:00,82FAEAE0,0,0,19605,0,0,145
00:06:16,82FAECE0,0,0,19605,0,0,145
00:06:24,82FAEDE0,0,0,19605,0,0,145
00:06:32,82FAEEE0,0,0,19605,0,0,145
00:06:48,82FAF0E0,0,0,19605,0,0,146
00:06:56,82FAF1E0,0,0,19605,0,0,146
00:07:04,82FAF2E0,0,0,19605,0,0,146
00:07:20,82FAF4E0,0,0,19605,0,0,145
00:07:28,82FAF5E0,0,0,19605,0,0,145
00:07:36,82FAF6E0,0,0,19605,0,0,145
00:07:44,82FAF7E0,0,0,19605,0,0,144
00:07:52,82FAF8E0,0,0,19605,0,0,144
00:08:00,82FAF9E0,0,0,19605,0,0,144
00:08:08,82FAFAE0,0,0,19605,0,0,143
00:08:24,82FAFCE0,0,0,19605,0,0,143
00:08:32,82FAFDE0,0,0,19605,0,0,142
00:08:40,82FAFEE0,0,0,19605,0,0,142
00:08:48,82FAFFE0,0,0,19605,0,0,142
00:08:56,82FB00E0,0,0,19605,0,0,141
00:09:04,82FB01E0,0,0,19605,0,0,141
00:09:12,82FB02E0,0,0,19605,0,0,141
00:09:28,82FB04E0,0,0,19605,0,0,141
00:09:36,82FB05E0,0,0,19605,0,0,141
00:09:44,82FB06E0,0,0,19605,0,0,141
00:09:52,82FB07E0,0,0,19605,0,0,141
00:10:00,82FB08E0,0,0,19605,0,0,142
00:10:08,82FB09E0,0,0,19605,0,0,142
00:10:16,82FB0AE0,0,0,19605,0,0,142
00:10:32,82FB0CE0,0,0,19605,0,0,142
00:10:40,82FB0DE0,0,0,19605,0,0,143
00:10:48,82FB0EE0,0,0,19605,0,0,143
00:11:04,82FB10E0,0,0,19605,0,0,143
00:11:12,82FB11E0,0,0,19605,0,0,143
00:11:20,82FB12E0,0,0,19605,0,0,144
00:11:36,82FB14E0,0,0,19605,0,0,144
00:11:44,82FB15E0,0,0,19605,0,0,144
00:11:52,82FB16E0,0,0,19605,0,0,144
00:12:00,82FB17E0,0,0,19605,0,0,144
00:12:08,82FB18E0,0,0,19605,0,0,144
00:12:16,82FB19E0,0,0,19605,0,0,145
00:12:24,82FB1AE0,0,0,19605,0,0,145
00:12:40,82FB1CE0,0,0,19605,0,0,145
00:12:48,82FB1DE0,0,0,19605,0,0,145
00:12:56,82FB1EE0,0,0,19605,0,0,145
00:13:04,82FB1FE0,0,0,19605,0,0,146
00:13:12,82FB20E0,0,0,19605,0,0,146
00:13:20,82FB21E0,0,0,19605,0,0,146
00:13:28,82FB22E0,0,0,19605,0,0,146
00:13:44,82FB24E0,0,0,19605,0,0,145
00:13:52,82FB25E0,0,0,19605,0,0,145
00:14:00,82FB26E0,0,0,19605,0,0,145
00:14:08,82FB27E0,0,0,19605,0,0,144
00:14:16,82FB28E0,0,0,19605,0,0,144
00:14:24,82FB29E0,0,0,19605,0,0,144
00:14:32,82FB2AE0,0,0,19605,0,0,143
00:14:48,82FB2CE0,0,0,19605,0,0,143
00:14:56,82FB2DE0,0,0,19605,0,0,142
00:15:04,82FB2EE0,0,0,19605,0,0,142
00:15:20,82FB30E0,0,0,19605,0,0,141
00:15:28,82FB31E0,0,0,19605,0,0,141
00:15:36,82FB32E0,0,0,19605,0,0,141
00:15:52,82FB34E0,0,0,19605,0,0,141
00:16:00,82FB35E0,0,0,19605,0,0,141
00:16:08,82FB36E0,0,0,19605,0,0,141
00:16:16,82FB37E0,0,0,19605,0,0,141
00:16:24,82FB38E0,0,0,19605,0,0,141
00:16:32,82FB39E0,0,0,19605,0,0,142
00:16:40,82FB3AE0,0,0,19605,0,0,142
00:16:56,82FB3CE0,0,0,19605,0,0,142
00:17:04,82FB3DE0,0,0,19605,0,0,143
00:17:12,82FB3EE0,0,0,19605,0,0,143
00:17:20,82FB3FE0,0,0,19605,0,0,143
00:17:28,82FB40E0,0,0,19605,0,0,143
00:17:36,82FB41E0,0,0,19605,0,0,143
00:17:44,82FB42E0,0,0,19605,0,0,143
00:18:00,82FB44E0,0,0,19605,0,0,144
00:18:08,82FB45E0,0,0,19605,0,0,144
00:18:16,82FB46E0,0,0,19605,0,0,144
00:18:24,82FB47E0,0,0,19605,0,0,145
00:18:32,82FB48E0,0,0,19605,0,0,145
00:18:40,82FB49E0,0,0,19605,0,0,145
00:18:48,82FB4AE0,0,0,19605,0,0,145
00:19:04,82FB4CE0,0,0,19605,0,0,145
00:19:12,82FB4DE0,0,0,19605,0,0,145
00:19:20,82FB4EE0,0,0,19605,0,0,145
00:19:36,82FB50E0,0,0,19605,0,0,145
00:19:44,82FB51E0,0,0,19605,0,0,146
00:19:52,82FB52E0,0,0,19605,0,0,146
00:20:08,82FB54E0,0,0,19605,0,0,146
00:20:16,82FB55E0,0,0,19605,0,0,145
00:20:24,82FB56E0,0,0,19605,0,0,145
00:20:32,82FB57E0,0,0,19605,0,0,145
00:20:40,82FB58E0,0,0,19605,0,0,144
00:20:48,82FB59E0,0,0,19605,0,0,144
00:20:56,82FB5AE0,0,0,19605,0,0,144
00:21:12,82FB5CE0,0,0,19605,0,0,143
00:21:20,82FB5DE0,0,0,19605,0,0,142
00:21:28,82FB5EE0,0,0,19605,0,0,142
00:21:36,82FB5FE0,0,0,19605,0,0,142
00:21:44,82FB60E0,0,0,19605,0,0,142
00:21:52,82FB61E0,0,0,19605,0,0,141
00:22:00,82FB62E0,0,0,19605,0,0,141
00:22:16,82FB64E0,0,0,19605,0,0,141
00:22:24,82FB65E0,0,0,19605,0,0,141
00:22:32,82FB66E0,0,0,19605,0,0,141
00:22:40,82FB67E0,0,0,19605,0,0,141
00:22:48,82FB68E0,0,0,19605,0,0,141
00:22:56,82FB69E0,0,0,19605,0,0,142
00:23:04,82FB6AE0,0,0,19605,0,0,142
00:23:20,82FB6CE0,0,0,19605,0,0,142
00:23:28,82FB6DE0,0,0,19605,0,0,143
00:23:36,82FB6EE0,0,0,19605,0,0,143
00:23:52,82FB70E0,0,0,19605,0,0,143
00:24:00,82FB71E0,0,0,19605,0,0,143
00:24:08,82FB72E0,0,0,19605,0,0,144
00:24:24,82FB74E0,0,0,19605,0,0,144
00:24:32,82FB75E0,0,0,19605,0,0,144
00:24:40,82FB76E0,0,0,19605,0,0,144
00:24:48,82FB77E0,0,0,19605,0,0,144
00:24:56,82FB78E0,0,0,19605,0,0,144
00:25:04,82FB79E0,0,0,19605,0,0,145
00:25:12,82FB7AE0,0,0,19605,0,0,145
00:25:28,82FB7CE0,0,0,19605,0,0,145
00:25:36,82FB7DE0,0,0,19605,0,0,145
00:25:44,82FB7EE0,0,0,19605,0,0,145
00:25:52,82FB7FE0,0,0,19605,0,0,145
00:26:00,82FB80E0,0,0,19605,0,0,145
00:26:08,82FB81E0,0,0,19605,0,0,146
00:26:16,82FB82E0,0,0,19605,0,0,146
00:26:32,82FB84E0,0,0,19605,0,0,146
00:26:40,82FB85E0,0,0,19605,0,0,146
00:26:48,82FB86E0,0,0,19605,0,0,145
00:26:56,82FB87E0,0,0,19605,0,0,145
00:27:04,82FB88E0,0,0,19605,0,0,145
00:27:12,82FB89E0,0,0,19605,0,0,144
00:27:20,82FB8AE0,0,0,19605,0,0,144
00:27:36,82FB8CE0,0,0,19605,0,0,143
00:27:44,82FB8DE0,0,0,19605,0,0,143
00:27:52,82FB8EE0,0,0,19605,0,0,142
00:28:08,82FB90E0,0,0,19605,0,0,142
00:28:16,82FB91E0,0,0,19605,0,0,141
00:28:24,82FB92E0,0,0,19605,0,0,141
00:28:40,82FB94E0,0,0,19605,0,0,141
00:28:48,82FB95E0,0,0,19605,0,0,141
00:28:56,82FB96E0,0,0,19605,0,0,141
00:29:04,82FB97E0,0,0,19605,0,0,141
00:29:12,82FB98E0,0,0,19605,0,0,141
00:29:20,82FB99E0,0,0,19605,0,0,141
00:29:28,82FB9AE0,0,0,19605,0,0,142
00:29:44,82FB9CE0,0,0,19605,0,0,142
00:29:52,82FB9DE0,0,0,19605,0,0,142
00:30:00,82FB9EE0,0,0,19605,0,0,142
00:30:08,82FB9FE0,0,0,19605,0,0,143
00:30:16,82FBA0E0,0,0,19605,0,0,143
00:30:24,82FBA1E0,0,0,19605,0,0,143
00:30:32,82FBA2E0,0,0,19605,0,0,143
00:30:48,82FBA4E0,0,0,19605,0,0,144
00:30:56,82FBA5E0,0,0,19605,0,0,144
00:31:04,82FBA6E0,0,0,19605,0,0,144
00:31:12,82FBA7E0,0,0,19605,0,0,144
00:31:20,82FBA8E0,0,0,19605,0,0,144
00:31:28,82FBA9E0,0,0,19605,0,0,144
00:31:36,82FBAAE0,0,0,19605,0,0,144
00:31:52,82FBACE0,0,0,19605,0,0,145
00:32:00,82FBADE0,0,0,19605,0,0,145
00:32:08,82FBAEE0,0,0,19605,0,0,145
00:32:24,82FBB0E0,0,0,19605,0,0,145
00:32:32,82FBB1E0,0,0,19605,0,0,146
00:32:40,82FBB2E0,0,0,19605,0,0,146
00:32:56,82FBB4E0,0,0,19605,0,0,146
00:33:04,82FBB5E0,0,0,19605,0,0,146
00:33:12,82FBB6E0,0,0,19605,0,0,146
00:33:20,82FBB7E0,0,0,19605,0,0,145
00:33:28,82FBB8E0,0,0,19605,0,0,145
00:33:36,82FBB9E0,0,0,19605,0,0,144
00:33:44,82FBBAE0,0,0,19605,0,0,144
00:34:00,82FBBCE0,0,0,19605,0,0,143
00:34:08,82FBBDE0,0,0,19605,0,0,143
00:34:16,82FBBEE0,0,0,19605,0,0,143
00:34:24,82FBBFE0,0,0,19605,0,0,143
00:34:32,82FBC0E0,0,0,19605,0,0,142
00:34:40,82FBC1E0,0,0,19605,0,0,142
00:34:48,82FBC2E0,0,0,19605,0,0,142
00:35:04,82FBC4E0,0,0,19605,0,0,141
00:35:12,82FBC5E0,0,0,19605,0,0,141
00:35:20,82FBC6E0,0,0,19605,0,0,141
00:35:28,82FBC7E0,0,0,19605,0,0,141
00:35:36,82FBC8E0,0,0,19605,0,0,141
00:35:44,82FBC9E0,0,0,19605,0,0,141
00:35:52,82FBCAE0,0,0,19605,0,0,141
00:36:08,82FBCCE0,0,0,19605,0,0,142
00:36:16,82FBCDE0,0,0,19605,0,0,142
00:36:24,82FBCEE0,0,0,19605,0,0,142
00:36:40,82FBD0E0,0,0,19605,0,0,143
00:36:48,82FBD1E0,0,0,19605,0,0,143
00:36:56,82FBD2E0,0,0,19605,0,0,143
00:37:12,82FBD4E0,0,0,19605,0,0,143
00:37:20,82FBD5E0,0,0,19605,0,0,144
00:37:28,82FBD6E0,0,0,19605,0,0,144
00:37:36,82FBD7E0,0,0,19605,0,0,144
00:37:44,82FBD8E0,0,0,19605,0,0,144
00:37:52,82FBD9E0,0,0,19605,0,0,144
00:38:00,82FBDAE0,0,0,19605,0,0,144
00:38:16,82FBDCE0,0,0,19605,0,0,145
00:38:24,82FBDDE0,0,0,19605,0,0,145
00:38:32,82FBDEE0,0,0,19605,0,0,145
00:38:40,82FBDFE0,0,0,19605,0,0,145
00:38:48,82FBE0E0,0,0,19605,0,0,145
00:38:56,82FBE1E0,0,0,19605,0,0,145
00:39:04,82FBE2E0,0,0,19605,0,0,146
00:39:20,82FBE4E0,0,0,19605,0,0,146
00:39:28,82FBE5E0,0,0,19605,0,0,146
00:39:36,82FBE6E0,0,0,19605,0,0,146
00:39:44,82FBE7E0,0,0,19605,0,0,146
00:39:52,82FBE8E0,0,0,19605,0,0,145
00:40:00,82FBE9E0,0,0,19605,0,0,145
00:40:08,82FBEAE0,0,0,19605,0,0,145
00:40:24,82FBECE0,0,0,19605,0,0,144
00:40:32,82FBEDE0,0,0,19605,0,0,143
00:40:40,82FBEEE0,0,0,19605,0,0,143
00:40:56,82FBF0E0,0,0,19605,0,0,142
00:41:04,82FBF1E0,0,0,19605,0,0,142
00:41:12,82FBF2E0,0,0,19605,0,0,142
00:41:28,82FBF4E0,0,0,19605,0,0,141
00:41:36,82FBF5E0,0,0,19605,0,0,141
00:41:44,82FBF6E0,0,0,19605,0,0,141
00:41:52,82FBF7E0,0,0,19605,0,0,141
00:42:00,82FBF8E0,0,0,19605,0,0,141
00:42:08,82FBF9E0,0,0,19605,0,0,141
00:42:16,82FBFAE0,0,0,19605,0,0,141
00:42:32,82FBFCE0,0,0,19605,0,0,141
00:42:40,82FBFDE0,0,0,19605,0,0,142
00:42:48,82FBFEE0,0,0,19605,0,0,142
00:42:56,82FBFFE0,0,0,19605,0,0,142
00:43:04,82FC00E0,0,0,19605,0,0,143
00:43:12,82FC01E0,0,0,19605,0,0,143
00:43:20,82FC02E0,0,0,19605,0,0,143
00:43:36,82FC04E0,0,0,19605,0,0,143
00:43:44,82FC05E0,0,0,19605,0,0,143
00:43:52,82FC06E0,0,0,19605,0,0,144
00:44:00,82FC07E0,0,0,19605,0,0,144
00:44:08,82FC08E0,0,0,19605,0,0,144
00:44:16,82FC09E0,0,0,19605,0,0,144
00:44:24,82FC0AE0,0,0,19605,0,0,144
00:44:40,82FC0CE0,0,0,19605,0,0,145
00:44:48,82FC0DE0,0,0,19605,0,0,145
00:44:56,82FC0EE0,0,0,19605,0,0,145
00:45:12,82FC10E0,0,0,19605,0,0,145
00:45:20,82FC11E0,0,0,19605,0,0,145
00:45:28,82FC12E0,0,0,19605,0,0,145
00:45:44,82FC14E0,0,0,19605,0,0,145
00:45:52,82FC15E0,0,0,19605,0,0,145
00:46:00,82FC16E0,0,0,19605,0,0,145
00:46:08,82FC17E0,0,0,19605,0,0,146
00:46:16,82FC18E0,0,0,19605,0,0,146
00:46:24,82FC19E0,0,0,19605,0,0,145
00:46:32,82FC1AE0,0,0,19605,0,0,145
00:46:48,82FC1CE0,0,0,19605,0,0,145
00:46:56,82FC1DE0,0,0,19605,0,0,144
00:47:04,82FC1EE0,0,0,19605,0,0,144
00:47:12,82FC1FE0,0,0,19605,0,0,143
00:47:20,82FC20E0,0,0,19605,0,0,143
00:47:28,82FC21E0,0,0,19605,0,0,143
00:47:36,82FC22E0,0,0,19605,0,0,142
00:47:52,82FC24E0,0,0,19605,0,0,142
00:48:00,82FC25E0,0,0,19605,0,0,142
00:48:08,82FC26E0,0,0,19605,0,0,141
00:48:16,82FC27E0,0,0,19605,0,0,141
00:48:24,82FC28E0,0,0,19605,0,0,141
00:48:32,82FC29E0,0,0,19605,0,0,141
00:48:40,82FC2AE0,0,0,19605,0,0,141
00:48:56,82FC2CE0,0,0,19605,0,0,141
00:49:04,82FC2DE0,0,0,19605,0,0,141
00:49:12,82FC2EE0,0,0,19605,0,0,142
00:49:28,82FC30E0,0,0,19605,0,0,142
00:49:36,82FC31E0,0,0,19605,0,0,142
00:49:44,82FC32E0,0,0,19605,0,0,143
00:50:00,82FC34E0,0,0,19605,0,0,143
00:50:08,82FC35E0,0,0,19605,0,0,143
00:50:16,82FC36E0,0,0,19605,0,0,143
00:50:24,82FC37E0,0,0,19605,0,0,144
00:50:32,82FC38E0,0,0,19605,0,0,144
00:50:40,82FC39E0,0,0,19605,0,0,144
00:50:48,82FC3AE0,0,0,19605,0,0,144
00:51:04,82FC3CE0,0,0,19605,0,0,144
00:51:12,82FC3DE0,0,0,19605,0,0,145
00:51:20,82FC3EE0,0,0,19605,0,0,145
00:51:28,82FC3FE0,0,0,19605,0,0,145
00:51:36,82FC40E0,0,0,19605,0,0,145
00:51:44,82FC41E0,0,0,19605,0,0,145
00:51:52,82FC42E0,0,0,19605,0,0,145
00:52:08,82FC44E0,0,0,19605,0,0,145
00:52:16,82FC45E0,0,0,19605,0,0,145
00:52:24,82FC46E0,0,0,19605,0,0,146
00:52:32,82FC47E0,0,0,19605,0,0,146
00:52:40,82FC48E0,0,0,19605,0,0,146
00:52:48,82FC49E0,0,0,19605,0,0,145
00:52:56,82FC4AE0,0,0,19605,0,0,145
00:53:12,82FC4CE0,0,0,19605,0,0,145
00:53:20,82FC4DE0,0,0,19605,0,0,144
00:53:28,82FC4EE0,0,0,19605,0,0,144
00:53:44,82FC50E0,0,0,19605,0,0,143
00:53:52,82FC51E0,0,0,19605,0,0,143
00:54:00,82FC52E0,0,0,19605,0,0,143
00:54:16,82FC54E0,0,0,19605,0,0,142
00:54:24,82FC55E0,0,0,19605,0,0,142
00:54:32,82FC56E0,0,0,19605,0,0,141
00:54:40,82FC57E0,0,0,19605,0,0,141
00:54:48,82FC58E0,0,0,19605,0,0,141
00:54:56,82FC59E0,0,0,19605,0,0,141
00:55:04,82FC5AE0,0,0,19605,0,0,141
00:55:20,82FC5CE0,0,0,19605,0,0,141
00:55:28,82FC5DE0,0,0,19605,0,0,141
00:55:36,82FC5EE0,0,0,19605,0,0,142
00:55:44,82FC5FE0,0,0,19605,0,0,142
00:55:52,82FC60E0,0,0,19605,0,0,142
00:56:00,82FC61E0,0,0,19605,0,0,142
00:56:08,82FC62E0,0,0,19605,0,0,142
00:56:24,82FC64E0,0,0,19605,0,0,143
00:56:32,82FC65E0,0,0,19605,0,0,143
00:56:40,82FC66E0,0,0,19605,0,0,143
00:56:48,82FC67E0,0,0,19605,0,0,144
00:56:56,82FC68E0,0,0,19605,0,0,144
00:57:04,82FC69E0,0,0,19605,0,0,144
00:57:12,82FC6AE0,0,0,19605,0,0,144
00:57:28,82FC6CE0,0,0,19605,0,0,144
00:57:36,82FC6DE0,0,0,19605,0,0,144
00:57:44,82FC6EE0,0,0,19605,0,0,144
00:58:00,82FC70E0,0,0,19605,0,0,145
00:58:08,82FC71E0,0,0,19605,0,0,145
00:58:16,82FC72E0,0,0,19605,0,0,145
00:58:32,82FC74E0,0,0,19605,0,0,145
00:58:40,82FC75E0,0,0,19605,0,0,145
00:58:48,82FC76E0,0,0,19605,0,0,145
00:58:56,82FC77E0,0,0,19605,0,0,146
00:59:04,82FC78E0,0,0,19605,0,0,146
00:59:12,82FC79E0,0,0,19605,0,0,146
00:59:20,82FC7AE0,0,0,19605,0,0,146
00:59:36,82FC7CE0,0,0,19605,0,0,146
00:59:44,82FC7DE0,0,0,19605,0,0,145
00:59:52,82FC7EE0,0,0,19605,0,0,145
01:00:00,82FC7FE0,0,0,19605,0,0,144
01:00:08,82FC80E0,0,0,19605,0,0,144
01:00:16,82FC81E0,0,0,19605,0,0,144
01:00:24,82FC82E0,0,0,19605,0,0,143
01:00:40,82FC84E0,0,0,19605,0,0,143
01:00:48,82FC85E0,0,0,19605,0,0,142
01:00:56,82FC86E0,0,0,19605,0,0,142
01:01:04,82FC87E0,0,0,19605,0,0,142
01:01:12,82FC88E0,0,0,19605,0,0,141
01:01:20,82FC89E0,0,0,19605,0,0,141
01:01:28,82FC8AE0,0,0,19605,0,0,141
01:01:44,82FC8CE0,0,0,19605,0,0,141
01:01:52,82FC8DE0,0,0,19605,0,0,141
01:02:00,82FC8EE0,0,0,19605,0,0,141
01:02:16,82FC90E0,0,0,19605,0,0,142
01:02:24,82FC91E0,0,0,19605,0,0,142
01:02:32,82FC92E0,0,0,19605,0,0,142
01:02:48,82FC94E0,0,0,19605,0,0,142
01:02:56,82FC95E0,0,0,19605,0,0,143
01:03:04,82FC96E0,0,0,19605,0,0,143
01:03:12,82FC97E0,0,0,19605,0,0,143
01:03:20,82FC98E0,0,0,19605,0,0,143
01:03:28,82FC99E0,0,0,19605,0,0,143
01:03:36,82FC9AE0,0,0,19605,0,0,144
01:03:52,82FC9CE0,0,0,19605,0,0,144
01:04:00,82FC9DE0,0,0,19605,0,0,144
01:04:08,82FC9EE0,0,0,19605,0,0,145
01:04:16,82FC9FE0,0,0,19605,0,0,145
01:04:24,82FCA0E0,0,0,19605,0,0,145
01:04:32,82FCA1E0,0,0,19605,0,0,145
01:04:40,82FCA2E0,0,0,19605,0,0,145
01:04:56,82FCA4E0,0,0,19605,0,0,145
01:05:04,82FCA5E0,0,0,19605,0,0,146
01:05:12,82FCA6E0,0,0,19605,0,0,146
01:05:20,82FCA7E0,0,0,19605,0,0,146
01:05:28,82FCA8E0,0,0,19605,0,0,146
01:05:36,82FCA9E0,0,0,19605,0,0,146
01:05:44,82FCAAE0,0,0,19605,0,0,146
01:06:00,82FCACE0,0,0,19605,0,0,145
01:06:08,82FCADE0,0,0,19605,0,0,145
01:06:16,82FCAEE0,0,0,19605,0,0,144
01:06:32,82FCB0E0,0,0,19605,0,0,144
01:06:40,82FCB1E0,0,0,19605,0,0,143
01:06:48,82FCB2E0,0,0,19605,0,0,143
01:07:04,82FCB4E0,0,0,19605,0,0,142
01:07:12,82FCB5E0,0,0,19605,0,0,142
01:07:20,82FCB6E0,0,0,19605,0,0,142
01:07:28,82FCB7E0,0,0,19605,0,0,141
01:07:36,82FCB8E0,0,0,19605,0,0,141
01:07:44,82FCB9E0,0,0,19605,0,0,141
01:07:52,82FCBAE0,0,0,19605,0,0,141
01:08:08,82FCBCE0,0,0,19605,0,0,141
01:08:16,82FCBDE0,0,0,19605,0,0,141
01:08:24,82FCBEE0,0,0,19605,0,0,141
01:08:32,82FCBFE0,0,0,19605,0,0,142
01:08:40,82FCC0E0,0,0,19605,0,0,142
01:08:48,82FCC1E0,0,0,19605,0,0,142
01:08:56,82FCC2E0,0,0,19605,0,0,142
01:09:12,82FCC4E0,0,0,19605,0,0,143
01:09:20,82FCC5E0,0,0,19605,0,0,143
01:09:28,82FCC6E0,0,0,19605,0,0,143
01:09:36,82FCC7E0,0,0,19605,0,0,143
01:09:44,82FCC8E0,0,0,19605,0,0,143
01:09:52,82FCC9E0,0,0,19605,0,0,144
01:10:00,82FCCAE0,0,0,19605,0,0,144
01:10:16,82FCCCE0,0,0,19605,0,0,144
01:10:24,82FCCDE0,0,0,19605,0,0,144
01:10:32,82FCCEE0,0,0,19605,0,0,144
01:10:48,82FCD0E0,0,0,19605,0,0,145
01:10:56,82FCD1E0,0,0,19605,0,0,145
01:11:04,82FCD2E0,0,0,19605,0,0,145
01:11:20,82FCD4E0,0,0,19605,0,0,145
01:11:28,82FCD5E0,0,0,19605,0,0,145
01:11:36,82FCD6E0,0,0,19605,0,0,146
01:11:44,82FCD7E0,0,0,19605,0,0,146
01:11:52,82FCD8E0,0,0,19605,0,0,146
01:12:00,82FCD9E0,0,0,19605,0,0,146
01:12:08,82FCDAE0,0,0,19605,0,0,146
01:12:24,82FCDCE0,0,0,19605,0,0,145
01:12:32,82FCDDE0,0,0,19605,0,0,145
01:12:40,82FCDEE0,0,0,19605,0,0,144
01:12:48,82FCDFE0,0,0,19605,0,0,144
01:12:56,82FCE0E0,0,0,19605,0,0,144
01:13:04,82FCE1E0,0,0,19605,0,0,143
01:13:12,82FCE2E0,0,0,19605,0,0,143
01:13:28,82FCE4E0,0,0,19605,0,0,142
01:13:36,82FCE5E0,0,0,19605,0,0,142
01:13:44,82FCE6E0,0,0,19605,0,0,142
01:13:52,82FCE7E0,0,0,19605,0,0,142
01:14:00,82FCE8E0,0,0,19605,0,0,141
01:14:08,82FCE9E0,0,0,19605,0,0,141
01:14:16,82FCEAE0,0,0,19605,0,0,141
01:14:32,82FCECE0,0,0,19605,0,0,141
01:14:40,82FCEDE0,0,0,19605,0,0,141
01:14:48,82FCEEE0,0,0,19605,0,0,141
01:15:04,82FCF0E0,0,0,19605,0,0,142
01:15:12,82FCF1E0,0,0,19605,0,0,142
01:15:20,82FCF2E0,0,0,19605,0,0,142
01:15:36,82FCF4E0,0,0,19605,0,0,143
01:15:44,82FCF5E0,0,0,19605,0,0,143
01:15:52,82FCF6E0,0,0,19605,0,0,143
01:16:00,82FCF7E0,0,0,19605,0,0,143
01:16:08,82FCF8E0,0,0,19605,0,0,143
01:16:16,82FCF9E0,0,0,19605,0,0,143
01:16:24,82FCFAE0,0,0,19605,0,0,144
01:16:40,82FCFCE0,0,0,19605,0,0,144
01:16:48,82FCFDE0,0,0,19605,0,0,144
01:16:56,82FCFEE0,0,0,19605,0,0,144
01:17:04,82FCFFE0,0,0,19605,0,0,145
01:17:12,82FD00E0,0,0,19605,0,0,145
01:17:20,82FD01E0,0,0,19605,0,0,145
01:17:28,82FD02E0,0,0,19605,0,0,145
01:17:44,82FD04E0,0,0,19605,0,0,145
01:17:52,82FD05E0,0,0,19605,0,0,145
01:18:00,82FD06E0,0,0,19605,0,0,145
01:18:08,82FD07E0,0,0,19605,0,0,145
01:18:16,82FD08E0,0,0,19605,0,0,145
01:18:24,82FD09E0,0,0,19605,0,0,145
01:18:32,82FD0AE0,0,0,19605,0,0,146
01:18:48,82FD0CE0,0,0,19605,0,0,145
01:18:56,82FD0DE0,0,0,19605,0,0,145
01:19:04,82FD0EE0,0,0,19605,0,0,145
01:19:20,82FD10E0,0,0,19605,0,0,144
01:19:28,82FD11E0,0,0,19605,0,0,144
01:19:36,82FD12E0,0,0,19605,0,0,143
01:19:52,82FD14E0,0,0,19605,0,0,143
01:20:00,82FD15E0,0,0,19605,0,0,142
01:20:08,82FD16E0,0,0,19605,0,0,142
01:20:16,82FD17E0,0,0,19605,0,0,142
01:20:24,82FD18E0,0,0,19605,0,0,141
01:20:32,82FD19E0,0,0,19605,0,0,141
01:20:40,82FD1AE0,0,0,19605,0,0,141
01:20:56,82FD1CE0,0,0,19605,0,0,141
01:21:04,82FD1DE0,0,0,19605,0,0,141
01:21:12,82FD1EE0,0,0,19605,0,0,141
01:21:20,82FD1FE0,0,0,19605,0,0,141
01:21:28,82FD20E0,0,0,19605,0,0,141
01:21:36,82FD21E0,0,0,19605,0,0,142
01:21:44,82FD22E0,0,0,19605,0,0,142
01:22:00,82FD24E0,0,0,19605,0,0,142
01:22:08,82FD25E0,0,0,19605,0,0,143
01:22:16,82FD26E0,0,0,19605,0,0,143
01:22:24,82FD27E0,0,0,19605,0,0,143
01:22:32,82FD28E0,0,0,19605,0,0,143
01:22:40,82FD29E0,0,0,19605,0,0,144
01:22:48,82FD2AE0,0,0,19605,0,0,144
01:23:04,82FD2CE0,0,0,19605,0,0,144
01:23:12,82FD2DE0,0,0,19605,0,0,144
01:23:20,82FD2EE0,0,0,19605,0,0,144
01:23:36,82FD30E0,0,0,19605,0,0,145
01:23:44,82FD31E0,0,0,19605,0,0,145
01:23:52,82FD32E0,0,0,19605,0,0,145
01:24:08,82FD34E0,0,0,19605,0,0,145
01:24:16,82FD35E0,0,0,19605,0,0,145
01:24:24,82FD36E0,0,0,19605,0,0,145
01:24:32,82FD37E0,0,0,19605,0,0,145
01:24:40,82FD38E0,0,0,19605,0,0,146
01:24:48,82FD39E0,0,0,19605,0,0,146
01:24:56,82FD3AE0,0,0,19605,0,0,146
01:25:12,82FD3CE0,0,0,19605,0,0,146
01:25:20,82FD3DE0,0,0,19605,0,0,145
01:25:28,82FD3EE0,0,0,19605,0,0,145
01:25:36,82FD3FE0,0,0,19605,0,0,144
01:25:44,82FD40E0,0,0,19605,0,0,144
01:25:52,82FD41E0,0,0,19605,0,0,144
01:26:00,82FD42E0,0,0,19605,0,0,144
01:26:16,82FD44E0,0,0,19605,0,0,143
01:26:24,82FD45E0,0,0,19605,0,0,143
01:26:32,82FD46E0,0,0,19605,0,0,142
01:26:40,82FD47E0,0,0,19605,0,0,142
01:26:48,82FD48E0,0,0,19605,0,0,142
01:26:56,82FD49E0,0,0,19605,0,0,141
01:27:04,82FD4AE0,0,0,19605,0,0,141
01:27:20,82FD4CE0,0,0,19605,0,0,141
01:27:28,82FD4DE0,0,0,19605,0,0,141
01:27:36,82FD4EE0,0,0,19605,0,0,141
01:27:52,82FD50E0,0,0,19605,0,0,141
01:28:00,82FD51E0,0,0,19605,0,0,142
01:28:08,82FD52E0,0,0,19605,0,0,142
01:28:24,82FD54E0,0,0,19605,0,0,142
01:28:32,82FD55E0,0,0,19605,0,0,142
01:28:40,82FD56E0,0,0,19605,0,0,143
01:28:48,82FD57E0,0,0,19605,0,0,143
01:28:56,82FD58E0,0,0,19605,0,0,143
01:29:04,82FD59E0,0,0,19605,0,0,143
01:29:12,82FD5AE0,0,0,19605,0,0,143
01:29:28,82FD5CE0,0,0,19605,0,0,144
01:29:36,82FD5DE0,0,0,19605,0,0,144
01:29:44,82FD5EE0,0,0,19605,0,0,144
01:29:52,82FD5FE0,0,0,19605,0,0,144
01:30:00,82FD60E0,0,0,19605,0,0,145
01:30:08,82FD61E0,0,0,19605,0,0,145
01:30:16,82FD62E0,0,0,19605,0,0,145
01:30:32,82FD64E0,0,0,19605,0,0,145
01:30:40,82FD65E0,0,0,19605,0,0,145
01:30:48,82FD66E0,0,0,19605,0,0,146
01:30:56,82FD67E0,0,0,19605,0,0,146
01:31:04,82FD68E0,0,0,19605,0,0,146
01:31:12,82FD69E0,0,0,19605,0,0,146
01:31:20,82FD6AE0,0,0,19605,0,0,146
01:31:36,82FD6CE0,0,0,19605,0,0,146
01:31:44,82FD6DE0,0,0,19605,0,0,145
01:31:52,82FD6EE0,0,0,19605,0,0,145
01:32:08,82FD70E0,0,0,19605,0,0,144
01:32:16,82FD71E0,0,0,19605,0,0,144
01:32:24,82FD72E0,0,0,19605,0,0,144
01:32:40,82FD74E0,0,0,19605,0,0,143
01:32:48,82FD75E0,0,0,19605,0,0,143
01:32:56,82FD76E0,0,0,19605,0,0,142
01:33:04,82FD77E0,0,0,19605,0,0,142
01:33:12,82FD78E0,0,0,19605,0,0,142
01:33:20,82FD79E0,0,0,19605,0,0,141
01:33:28,82FD7AE0,0,0,19605,0,0,141
01:33:44,82FD7CE0,0,0,19605,0,0,141
01:33:52,82FD7DE0,0,0,19605,0,0,141
01:34:00,82FD7EE0,0,0,19605,0,0,141
01:34:08,82FD7FE0,0,0,19605,0,0,141
01:34:16,82FD80E0,0,0,19605,0,0,141
01:34:24,82FD81E0,0,0,19605,0,0,142
01:34:32,82FD82E0,0,0,19605,0,0,142
01:34:48,82FD84E0,0,0,19605,0,0,142
01:34:56,82FD85E0,0,0,19605,0,0,142
01:35:04,82FD86E0,0,0,19605,0,0,143
01:35:12,82FD87E0,0,0,19605,0,0,143
01:35:20,82FD88E0,0,0,19605,0,0,143
01:35:28,82FD89E0,0,0,19605,0,0,143
01:35:36,82FD8AE0,0,0,19605,0,0,143
01:35:52,82FD8CE0,0,0,19605,0,0,144
01:36:00,82FD8DE0,0,0,19605,0,0,144
01:36:08,82FD8EE0,0,0,19605,0,0,144
01:36:24,82FD90E0,0,0,19605,0,0,145
01:36:32,82FD91E0,0,0,19605,0,0,145
01:36:40,82FD92E0,0,0,19605,0,0,145
01:36:56,82FD94E0,0,0,19605,0,0,145
01:37:04,82FD95E0,0,0,19605,0,0,145
01:37:12,82FD96E0,0,0,19605,0,0,145
01:37:20,82FD97E0,0,0,19605,0,0,145
01:37:28,82FD98E0,0,0,19605,0,0,145
01:37:36,82FD99E0,0,0,19605,0,0,146
01:37:44,82FD9AE0,0,0,19605,0,0,146
01:38:00,82FD9CE0,0,0,19605,0,0,146
01:38:08,82FD9DE0,0,0,19605,0,0,146
01:38:16,82FD9EE0,0,0,19605,0,0,145
01:38:24,82FD9FE0,0,0,19605,0,0,145
01:38:32,82FDA0E0,0,0,19605,0,0,145
01:38:40,82FDA1E0,0,0,19605,0,0,144
01:38:48,82FDA2E0,0,0,19605,0,0,144
01:39:04,82FDA4E0,0,0,19605,0,0,143
01:39:12,82FDA5E0,0,0,19605,0,0,143
01:39:20,82FDA6E0,0,0,19605,0,0,142
01:39:28,82FDA7E0,0,0,19605,0,0,142
01:39:36,82FDA8E0,0,0,19605,0,0,142
01:39:44,82FDA9E0,0,0,19605,0,0,142
01:39:52,82FDAAE0,0,0,19605,0,0,141
01:40:08,82FDACE0,0,0,19605,0,0,141
01:40:16,82FDADE0,0,0,19605,0,0,141
01:40:24,82FDAEE0,0,0,19605,0,0,141
01:40:40,82FDB0E0,0,0,19605,0,0,141
01:40:48,82FDB1E0,0,0,19605,0,0,141
01:40:56,82FDB2E0,0,0,19605,0,0,141
01:41:12,82FDB4E0,0,0,19605,0,0,142
01:41:20,82FDB5E0,0,0,19605,0,0,142
01:41:28,82FDB6E0,0,0,19605,0,0,143
01:41:36,82FDB7E0,0,0,19605,0,0,143
01:41:44,82FDB8E0,0,0,19605,0,0,143
01:41:52,82FDB9E0,0,0,19605,0,0,143
01:42:00,82FDBAE0,0,0,19605,0,0,143
01:42:16,82FDBCE0,0,0,19605,0,0,144